Overview Statistics Trail Chart Weather Telemetry Raw packets
 

This is the latest recevied weather packets stored in our database for station/object KI4KWR-1. If no packets are shown the sender has not sent any weather packets the latest 10 day(s).

<< 20 21 22 23 24 25 26 >>
Time Temp. Humidity Pressure Rain* Wind** Luminosity Snow
1788147904 22.22° C 87% 990 hPa 0 mm - - -
1788147004 22.22° C 87% 990.1 hPa 0 mm - - -
1788146104 22.78° C 85% 990.2 hPa 0 mm - - -
1788145204 22.78° C 85% 990.2 hPa 0 mm - - -
1788144304 22.78° C 85% 990.2 hPa 0 mm - - -
1788143404 23.33° C 84% 990.2 hPa 0 mm - - -
1788142503 23.89° C 81% 990 hPa 0 mm - - -
1788141604 23.89° C 82% 989.7 hPa 0 mm - - -
1788140703 24.44° C 79% 989.7 hPa 0 mm - - -
1788139804 25° C 76% 989.6 hPa 0 mm - - -
1788138904 25.56° C 74% 989.4 hPa 0 mm - - -
1788138003 26.67° C 72% 989.2 hPa 0 mm - - -
1788137104 27.78° C 69% 989.2 hPa 0 mm - - -
1788136203 28.33° C 66% 989.2 hPa 0 mm - - -
1788135321 29.44° C 63% 989.1 hPa 0 mm - - -
1788134404 30.56° C 60% 989.1 hPa 0 mm - - -
1788133504 31.67° C 58% 989.2 hPa 0 mm - - -
1788132603 31.11° C 58% 989.2 hPa 0 mm - - -
1788131703 31.67° C 56% 989.3 hPa 0 mm - - -
1788130803 31.67° C 54% 989.3 hPa 0 mm - - -
1788129904 32.22° C 53% 989.2 hPa 0 mm - - -
1788129015 32.78° C 51% 989.1 hPa 0 mm - - -
1788128104 33.33° C 50% 989.1 hPa 0 mm - - -
1788127203 33.33° C 50% 989.2 hPa 0 mm - - -
1788126304 32.78° C 49% 989.2 hPa 0 mm - - -

* Rain latest hour (hover to see other rain measurements)
** Current wind speed in m/s (hover to see current wind gust speed)